Simultaneous Nadir Overpasses (SNOs) Predictions

Prediction of SNOs between AQUA and NPP Satellite Orbit:

Table of predicted SNOs for the next 14.0 days since TLE Epoch: 10/3/2015
Index Date (AQUA) Time (AQUA) Lat,Lon (AQUA) SZA (AQUA ) Date (NPP) Time (NPP) Lat,Lon (NPP) SZA (NPP ) Distance(km) Time Diff (sec)
1 10/05/2015 03:54:54 -70.89, 169.59 73.66 10/05/2015 03:54:03 -70.88, 169.55 73.60 1.29 51
2 10/05/2015 04:43:29 73.58, -17.89 103.65 10/05/2015 04:43:54 73.58, -17.86 103.62 1.02 25
3 10/07/2015 20:10:56 -72.32, -72.14 74.14 10/07/2015 20:10:29 -72.32, -72.09 74.13 1.79 27
4 10/07/2015 20:59:49 74.02, 98.96 104.15 10/07/2015 21:00:39 74.02, 98.94 104.11 0.75 50
5 10/10/2015 11:41:46 59.30,-137.61 118.89 10/10/2015 11:40:33 59.38,-138.23 119.18 36.53 73
6 10/10/2015 12:27:09 -73.06, 45.16 73.95 10/10/2015 12:27:07 -73.07, 45.21 73.96 1.70 2
7 10/10/2015 13:15:12 77.19,-135.85 101.67 10/10/2015 13:16:26 77.09,-135.52 101.57 13.52 74
8 10/13/2015 03:54:42 71.30, -9.76 108.73 10/13/2015 03:53:49 71.30, -9.76 108.78 0.09 53
9 10/13/2015 04:43:31 -73.36, 161.65 73.31 10/13/2015 04:43:55 -73.35, 161.60 73.32 1.84 24
10 10/15/2015 20:10:59 71.85, 107.04 109.11 10/15/2015 20:10:32 71.84, 106.98 109.16 2.50 27




NCC Satellite Simultaneous Nadir Overpasses (SNOs) Prediction Service
